FW7501 Weather Reports


time (UTC)temp
F
wind
direction
speed
knots
gust
knots
rain 1hr
in
rain 24hr
in
rain mn
in
humidity
%
barometer
mb
20260906132003 51 135 2.6 5.2 0.00 0.00 0.00 79 1024.0
20260906131507 51 141 2.6 4.3 0.00 0.00 0.00 80 1024.0
20260906131005 51 137 1.7 4.3 0.00 0.00 0.00 80 1024.0
20260906130506 51 156 1.7 6.1 0.00 0.00 0.00 80 1024.1
20260906130022 51 149 2.6 6.1 0.00 0.00 0.00 80 1024.0
20260906125508 51 123 3.5 5.2 0.00 0.00 0.00 80 1024.1
20260906125009 51 126 2.6 4.3 0.00 0.00 0.00 81 1024.1
20260906124515 51 127 2.6 6.1 0.00 0.00 0.00 81 1024.1
20260906124005 51 126 3.5 6.1 0.00 0.00 0.00 81 1024.1
20260906123516 51 139 2.6 6.1 0.00 0.00 0.00 81 1024.2
20260906123010 51 130 2.6 5.2 0.00 0.00 0.00 80 1024.1
20260906122517 51 146 2.6 7.8 0.00 0.00 0.00 80 1024.2
20260906122015 51 149 3.5 7.8 0.00 0.00 0.00 80 1024.3
20260906121507 51 172 3.5 5.2 0.00 0.00 0.00 79 1024.4
20260906121003 51 180 3.5 7.0 0.00 0.00 0.00 79 1024.4
20260906120512 51 166 3.5 7.0 0.00 0.00 0.00 78 1024.4
20260906120006 52 158 3.5 5.2 0.00 0.00 0.00 77 1024.4
20260906115507 52 165 2.6 3.5 0.00 0.00 0.00 77 1024.4
20260906115007 52 180 1.7 4.3 0.00 0.00 0.00 76 1024.5
20260906114531 52 168 1.7 4.3 0.00 0.00 0.00 76 1024.5
20260906114009 52 169 1.7 4.3 0.00 0.00 0.00 75 1024.5
20260906113509 52 180 1.7 3.5 0.00 0.00 0.00 74 1024.5
20260906113021 52 171 1.7 3.5 0.00 0.00 0.00 74 1024.4
20260906112512 52 185 1.7 3.5 0.00 0.00 0.00 74 1024.4
20260906112004 52 185 0.9 3.5 0.00 0.00 0.00 74 1024.4
20260906111524 53 171 1.7 3.5 0.00 0.00 0.00 74 1024.2
20260906111009 53 185 1.7 3.5 0.00 0.00 0.00 73 1024.2
20260906110516 53 180 1.7 3.5 0.00 0.00 0.00 73 1024.2
20260906110020 53 162 0.9 2.6 0.00 0.00 0.00 74 1024.1
20260906105506 53 162 1.7 2.6 0.00 0.00 0.00 74 1024.2
20260906105009 53 162 1.7 2.6 0.00 0.00 0.00 73 1024.2
20260906104517 53 162 0.9 2.6 0.00 0.00 0.00 73 1024.3
20260906104010 53 162 0.9 1.7 0.00 0.00 0.00 73 1024.2
20260906103510 53 162 0.0 2.6 0.00 0.00 0.00 73 1024.1
20260906103015 53 162 0.9 2.6 0.00 0.00 0.00 73 1024.1
20260906102510 53 162 0.9 2.6 0.00 0.00 0.00 73 1023.9
20260906102015 53 158 0.9 2.6 0.00 0.00 0.00 73 1023.9
20260906101518 53 158 1.7 3.5 0.00 0.00 0.00 73 1023.9
20260906101016 53 160 1.7 3.5 0.00 0.00 0.00 74 1024.0
20260906100515 53 159 1.7 3.5 0.00 0.00 0.00 74 1023.9
20260906100037 53 163 1.7 3.5 0.00 0.00 0.00 74 1023.9
20260906095516 53 185 1.7 3.5 0.00 0.00 0.00 75 1023.8
20260906095011 53 185 1.7 2.6 0.00 0.00 0.00 75 1023.8
20260906094533 53 185 0.9 2.6 0.00 0.00 0.00 75 1023.8
20260906094014 53 185 0.9 4.3 0.00 0.00 0.00 75 1023.8
20260906093510 53 185 1.7 4.3 0.00 0.00 0.00 74 1023.7
20260906093014 53 190 2.6 6.1 0.00 0.00 0.00 75 1023.7
20260906092512 53 215 2.6 7.8 0.00 0.00 0.00 75 1023.7
20260906092015 54 189 4.3 7.8 0.00 0.00 0.00 75 1023.6
20260906091525 54 185 3.5 7.8 0.00 0.00 0.00 76 1023.6
20260906091012 54 165 4.3 7.0 0.00 0.00 0.00 75 1023.6
20260906090512 54 189 3.5 7.0 0.00 0.00 0.00 75 1023.5
20260906090025 54 193 2.6 7.0 0.00 0.00 0.00 75 1023.5
20260906085518 54 164 3.5 7.0 0.00 0.00 0.00 75 1023.4
20260906085017 54 156 4.3 7.0 0.00 0.00 0.00 74 1023.5
20260906084520 54 151 3.5 7.0 0.00 0.00 0.00 74 1023.4
20260906084022 54 193 2.6 7.0 0.00 0.00 0.00 74 1023.3
20260906083513 54 203 3.5 8.7 0.00 0.00 0.00 73 1023.2
20260906083014 54 194 4.3 8.7 0.00 0.00 0.00 72 1023.1
20260906082514 54 191 1.7 3.5 0.00 0.00 0.00 72 1023.1
20260906082014 55 191 0.9 3.5 0.00 0.00 0.00 72 1023.0
20260906081518 55 191 1.7 5.2 0.00 0.00 0.00 71 1023.0
20260906081011 55 191 2.6 5.2 0.00 0.00 0.00 70 1022.9
20260906080516 55 191 2.6 5.2 0.00 0.00 0.00 69 1022.8
20260906080005 55 216 1.7 4.3 0.00 0.00 0.00 69 1022.7
20260906075504 55 170 0.9 4.3 0.00 0.00 0.00 68 1022.6
20260906075002 55 170 1.7 5.2 0.00 0.00 0.00 67 1022.6
20260906074509 55 158 3.5 5.2 0.00 0.00 0.00 67 1022.4
20260906074003 55 157 1.7 3.5 0.00 0.00 0.00 68 1022.4
20260906073503 55 152 1.7 3.5 0.00 0.00 0.00 68 1022.4
20260906073005 55 161 1.7 3.5 0.00 0.00 0.00 68 1022.4
20260906072504 56 159 1.7 4.3 0.00 0.00 0.00 68 1022.3
20260906072009 56 158 2.6 5.2 0.00 0.00 0.00 68 1022.3
20260906071503 56 156 2.6 5.2 0.00 0.00 0.00 68 1022.3
20260906071003 56 156 3.5 5.2 0.00 0.00 0.00 68 1022.2
20260906070503 56 189 2.6 5.2 0.00 0.00 0.00 68 1022.1
20260906070004 56 157 3.5 7.0 0.00 0.00 0.00 68 1022.0
20260906065509 56 192 4.3 7.0 0.00 0.00 0.00 66 1022.0
20260906065003 57 195 1.7 7.8 0.00 0.00 0.00 64 1022.0
20260906064504 57 156 5.2 7.8 0.00 0.00 0.00 63 1022.0
20260906064005 57 158 2.6 7.8 0.00 0.00 0.00 64 1021.9
20260906063507 57 156 3.5 8.7 0.00 0.00 0.00 65 1021.9
20260906063003 57 203 5.2 8.7 0.00 0.00 0.00 66 1021.8
20260906062503 57 131 2.6 6.1 0.00 0.00 0.00 64 1021.8
20260906062005 57 122 2.6 4.3 0.00 0.00 0.00 66 1021.7
20260906061511 57 139 1.7 6.1 0.00 0.00 0.00 65 1021.7
20260906061005 57 162 2.6 6.1 0.00 0.00 0.00 66 1021.7
20260906060503 57 189 2.6 4.3 0.00 0.00 0.00 67 1021.9
20260906060016 57 223 2.6 4.3 0.00 0.00 0.00 65 1021.9
20260906055504 57 175 0.9 4.3 0.00 0.00 0.00 66 1022.0
20260906055004 57 168 1.7 4.3 0.00 0.00 0.00 67 1021.8
20260906054503 57 232 0.0 1.7 0.00 0.00 0.00 66 1021.8
20260906054003 57 232 0.0 2.6 0.00 0.00 0.00 65 1021.8
20260906053505 57 233 0.9 3.5 0.00 0.00 0.00 67 1021.8
20260906053005 57 197 1.7 5.2 0.00 0.00 0.00 67 1021.8
20260906052503 57 203 1.7 6.1 0.00 0.00 0.00 64 1021.9
20260906052007 57 160 4.3 7.0 0.00 0.00 0.00 65 1021.8
20260906051504 58 213 2.6 7.0 0.00 0.00 0.00 65 1021.8
20260906051013 57 228 1.7 7.0 0.00 0.00 0.00 65 1021.7
20260906050509 57 203 2.6 8.7 0.00 0.00 0.00 66 1021.6
20260906050006 57 237 3.5 8.7 0.00 0.00 0.00 68 1021.7
20260906045512 57 244 3.5 8.7 0.00 0.00 0.00 67 1021.7
20260906045004 57 225 2.6 6.1 0.00 0.00 0.00 67 1021.7
20260906044504 56 230 0.9 7.8 0.00 0.00 0.00 66 1021.6
20260906044006 56 261 3.5 7.8 0.00 0.00 0.00 65 1021.5
20260906043503 57 251 4.3 7.0 0.00 0.00 0.00 65 1021.4
20260906043013 57 229 3.5 6.1 0.00 0.00 0.00 64 1021.5
20260906042504 58 301 2.6 5.2 0.00 0.00 0.00 65 1021.5
20260906042004 58 306 1.7 5.2 0.00 0.00 0.00 67 1021.6
20260906041504 57 314 2.6 4.3 0.00 0.00 0.00 66 1021.6
20260906041003 56 252 1.7 4.3 0.00 0.00 0.00 67 1021.5
20260906040503 56 210 1.7 4.3 0.00 0.00 0.00 65 1021.4
20260906040023 56 239 1.7 4.3 0.00 0.00 0.00 67 1021.4
20260906035504 56 242 0.9 6.1 0.00 0.00 0.00 67 1021.4
20260906035010 56 216 0.9 7.8 0.00 0.00 0.00 70 1021.5
20260906034520 56 206 4.3 8.7 0.00 0.00 0.00 70 1021.4
20260906034014 55 194 3.5 9.6 0.00 0.00 0.00 72 1021.4
20260906033512 56 239 5.2 9.6 0.00 0.00 0.00 71 1021.5
20260906033018 56 251 5.2 9.6 0.00 0.00 0.00 67 1021.5
20260906032515 56 126 1.7 8.7 0.00 0.00 0.00 66 1021.5
20260906032004 56 263 3.5 8.7 0.00 0.00 0.00 66 1021.6
20260906031509 57 244 4.3 8.7 0.00 0.00 0.00 71 1021.6
20260906031003 56 283 3.5 7.0 0.00 0.00 0.00 73 1021.6
20260906030509 55 226 0.0 7.8 0.00 0.00 0.00 71 1021.6
20260906030005 55 233 2.6 8.7 0.00 0.00 0.00 73 1021.6
20260906025512 55 212 4.3 9.6 0.00 0.00 0.00 74 1021.6
20260906025009 55 221 6.1 9.6 0.00 0.00 0.00 71 1021.6
20260906024509 56 191 4.3 9.6 0.00 0.00 0.00 68 1021.6
20260906024014 56 219 5.2 8.7 0.00 0.00 0.00 70 1021.7
20260906023505 55 244 2.6 7.8 0.00 0.00 0.00 68 1021.8
20260906023023 55 261 5.2 7.8 0.00 0.00 0.00 69 1021.9
20260906022507 55 235 3.5 8.7 0.00 0.00 0.00 71 1021.9
20260906022004 55 226 4.3 8.7 0.00 0.00 0.00 70 1021.9
20260906021522 55 232 4.3 10.4 0.00 0.00 0.00 71 1021.9
20260906021007 55 260 6.1 10.4 0.00 0.00 0.00 69 1022.0
20260906020719 55 247 4.3 9.6 0.00 0.00 0.00 71 1022.1
20260906015519 55 258 4.3 9.6 0.00 0.00 0.00 71 1022.1
20260906015006 55 256 4.3 8.7 0.00 0.00 0.00 70 1022.1
20260906014511 55 211 4.3 7.8 0.00 0.00 0.00 69 1022.1
20260906014010 55 168 0.9 10.4 0.00 0.00 0.00 70 1022.1
20260906013510 55 214 7.0 10.4 0.00 0.00 0.00 70 1022.2
20260906013009 55 171 2.6 8.7 0.00 0.00 0.00 71 1022.2
20260906012515 54 214 4.3 9.6 0.00 0.00 0.00 69 1022.3
20260906012012 54 200 5.2 9.6 0.00 0.00 0.00 73 1022.2
20260906011621 54 244 4.3 8.7 0.00 0.00 0.00 75 1022.2
20260906011605 54 237 4.3 10.4 0.00 0.00 0.00 76 1022.1
20260906005514 53 212 5.2 10.4 0.00 0.00 0.00 79 1022.3
20260906005008 53 248 4.3 10.4 0.00 0.00 0.00 79 1022.3
20260906004505 53 224 5.2 10.4 0.00 0.00 0.00 79 1022.2
20260906004009 53 231 5.2 12.2 0.00 0.00 0.00 81 1022.3
20260906003507 53 208 5.2 12.2 0.00 0.00 0.00 81 1022.1
20260906003013 52 231 4.3 9.6 0.00 0.00 0.00 82 1022.1
20260906002509 52 241 5.2 12.2 0.00 0.00 0.00 82 1022.1
20260906002008 52 217 6.1 12.2 0.00 0.01 0.00 82 1022.0
20260906001524 52 234 6.1 10.4 0.00 0.01 0.00 82 1022.0
20260906001007 52 221 6.1 10.4 0.00 0.01 0.00 83 1021.9
20260906000514 51 237 6.1 10.4 0.00 0.01 0.00 82 1021.8
20260906000018 51 218 7.0 10.4 0.00 0.01 0.00 84 1021.8
20260905235516 51 210 7.0 10.4 0.00 0.01 0.00 84 1021.8
20260905235016 51 220 6.1 10.4 0.00 0.01 0.00 85 1021.8
20260905234518 51 237 6.1 10.4 0.00 0.01 0.00 86 1021.8
20260905234015 51 239 3.5 9.6 0.00 0.01 0.00 86 1021.9
20260905233514 50 224 4.3 10.4 0.00 0.01 0.00 86 1021.9
20260905233009 50 220 7.0 10.4 0.00 0.01 0.00 86 1021.9
20260905232510 50 218 5.2 9.6 0.00 0.01 0.00 86 1021.9
20260905232008 50 221 3.5 9.6 0.00 0.01 0.00 86 1021.9
20260905231537 50 249 6.1 9.6 0.00 0.01 0.00 86 1021.7
20260905231012 50 226 5.2 7.8 0.00 0.01 0.00 86 1021.7
20260905230507 50 232 3.5 7.8 0.00 0.01 0.00 86 1021.7
20260905230022 49 216 5.2 7.8 0.00 0.01 0.00 86 1021.6
20260905225514 49 224 3.5 8.7 0.00 0.01 0.00 86 1021.5
20260905225011 49 194 4.3 8.7 0.00 0.01 0.00 86 1021.4
20260905224600 49 212 3.5 8.7 0.00 0.02 0.00 86 1021.3
20260905224010 49 223 4.3 7.8 0.00 0.02 0.00 86 1021.2
20260905223518 49 204 4.3 7.0 0.00 0.02 0.00 86 1021.1
20260905223027 49 233 4.3 7.8 0.00 0.02 0.00 86 1021.0
20260905222509 49 225 5.2 7.8 0.00 0.02 0.00 86 1020.8
20260905222016 49 223 3.5 8.7 0.00 0.02 0.00 86 1020.8
20260905221528 49 207 4.3 8.7 0.00 0.02 0.00 86 1020.8
20260905221019 49 220 4.3 8.7 0.00 0.02 0.00 86 1020.8
20260905220510 48 195 3.5 7.8 0.00 0.02 0.00 86 1020.7
20260905220018 48 233 3.5 7.0 0.00 0.02 0.00 86 1020.7
20260905215517 48 228 3.5 7.8 0.00 0.02 0.00 86 1020.7
20260905215016 48 228 3.5 8.7 0.00 0.02 0.00 86 1020.4
20260905214515 48 224 6.1 10.4 0.00 0.02 0.00 86 1020.3
20260905214015 48 222 5.2 10.4 0.00 0.02 0.00 86 1020.3
20260905213514 48 236 5.2 11.3 0.00 0.02 0.00 86 1020.3
20260905213032 48 249 5.2 11.3 0.00 0.03 0.00 85 1020.2
20260905212517 48 208 5.2 13.0 0.00 0.03 0.00 85 1020.1
20260905212014 48 241 7.0 13.0 0.00 0.03 0.00 85 1020.1
20260905211542 48 234 6.1 13.9 0.00 0.03 0.00 85 1020.0
20260905211013 48 224 8.7 13.9 0.00 0.03 0.00 85 1019.9
20260905210511 48 226 7.0 13.0 0.00 0.03 0.00 86 1019.6
20260905210042 48 216 6.1 11.3 0.00 0.03 0.00 86 1019.5
20260905205516 48 239 4.3 8.7 0.00 0.03 0.00 86 1019.3
20260905205019 48 202 3.5 8.7 0.00 0.03 0.00 86 1019.2
20260905204518 48 220 4.3 8.7 0.00 0.03 0.00 86 1019.1
20260905204015 48 206 5.2 8.7 0.00 0.03 0.00 86 1019.1
20260905203514 48 195 5.2 10.4 0.00 0.03 0.00 86 1018.9
20260905203027 48 218 7.0 10.4 0.00 0.03 0.00 86 1018.7
20260905202520 48 209 6.1 8.7 0.00 0.03 0.00 85 1018.7
20260905202004 48 200 6.1 8.7 0.00 0.03 0.00 85 1018.6
20260905201507 48 196 4.3 7.8 0.00 0.03 0.00 85 1018.6
20260905201006 48 189 6.1 9.6 0.00 0.03 0.00 85 1018.5
20260905200509 48 189 4.3 9.6 0.00 0.03 0.00 85 1018.4
20260905200018 48 199 7.0 11.3 0.00 0.03 0.00 84 1018.4
20260905195506 48 211 6.1 12.2 0.00 0.03 0.00 84 1018.4
20260905195006 48 217 6.1 12.2 0.00 0.03 0.00 84 1018.4
20260905194509 48 209 3.5 11.3 0.00 0.03 0.00 84 1018.4
20260905194008 48 204 6.1 11.3 0.00 0.03 0.00 84 1018.4
20260905193507 48 228 7.0 11.3 0.00 0.03 0.00 84 1018.3
20260905193010 48 211 6.1 10.4 0.00 0.03 0.00 83 1018.2
20260905192508 49 221 6.1 10.4 0.00 0.03 0.00 83 1018.2
20260905192009 49 238 7.0 13.0 0.00 0.03 0.00 83 1018.2
20260905191508 49 229 4.3 13.0 0.00 0.04 0.00 83 1018.2
20260905191004 49 251 7.0 13.0 0.00 0.04 0.00 83 1018.1
20260905190503 49 214 7.0 13.0 0.00 0.04 0.00 83 1018.0
20260905190008 49 217 7.8 12.2 0.00 0.04 0.00 83 1017.9
20260905185507 49 223 7.8 12.2 0.00 0.04 0.00 83 1017.9
20260905185005 49 214 5.2 13.0 0.00 0.04 0.00 82 1017.8
20260905184519 49 206 7.8 13.0 0.00 0.04 0.00 82 1017.7
20260905184009 49 235 7.0 13.0 0.00 0.04 0.00 81 1017.7
20260905183508 49 208 7.8 15.6 0.00 0.04 0.00 81 1017.5
20260905183012 49 256 8.7 15.6 0.00 0.04 0.00 80 1017.5
20260905182508 49 243 8.7 13.9 0.00 0.04 0.00 80 1017.4
20260905182008 49 234 9.6 13.9 0.00 0.04 0.00 80 1017.4
20260905181511 49 243 5.2 13.0 0.00 0.04 0.00 80 1017.3
20260905181008 49 247 5.2 13.0 0.00 0.05 0.00 80 1017.4
20260905180505 49 232 7.8 12.2 0.00 0.05 0.00 80 1017.3
20260905180013 49 229 7.0 12.2 0.00 0.05 0.00 80 1017.1
20260905175508 49 256 7.0 13.0 0.00 0.05 0.00 80 1017.1
20260905175004 49 212 7.0 13.0 0.00 0.05 0.00 80 1017.1
20260905174510 49 249 7.8 12.2 0.00 0.05 0.00 81 1017.0
20260905174007 49 204 4.3 12.2 0.00 0.05 0.00 81 1016.8
20260905173508 49 213 5.2 12.2 0.00 0.05 0.00 81 1016.7
20260905173014 49 250 7.0 11.3 0.00 0.05 0.00 81 1016.7
20260905172511 49 245 5.2 11.3 0.00 0.05 0.00 81 1016.5
20260905172014 49 220 6.1 12.2 0.00 0.05 0.00 81 1016.4
20260905171516 49 241 8.7 12.2 0.00 0.06 0.00 81 1016.4
20260905171010 49 237 7.8 14.8 0.00 0.06 0.00 81 1016.2
20260905170508 49 231 7.8 14.8 0.00 0.06 0.00 81 1016.2
20260905170011 49 271 7.0 13.0 0.00 0.06 0.00 81 1016.1
20260905165511 49 240 7.8 13.9 0.00 0.06 0.00 82 1016.1
20260905165010 49 233 7.8 13.0 0.00 0.06 0.00 82 1015.9
20260905164526 49 239 6.1 13.0 0.00 0.06 0.00 82 1016.0
20260905164012 49 230 6.1 13.0 0.00 0.06 0.00 82 1015.9
20260905163510 49 259 6.1 13.9 0.00 0.06 0.00 82 1015.9
20260905163011 49 259 6.1 13.9 0.00 0.07 0.00 82 1015.8
20260905162507 49 237 7.0 13.0 0.00 0.07 0.00 82 1015.8
20260905162008 50 257 6.1 12.2 0.00 0.07 0.00 82 1015.8
20260905161518 50 241 7.0 14.8 0.00 0.07 0.00 82 1015.8
20260905161010 50 241 8.7 14.8 0.00 0.07 0.00 82 1015.7
20260905160511 50 251 7.0 13.0 0.00 0.07 0.00 82 1015.7
20260905160020 50 243 7.8 11.3 0.00 0.07 0.00 82 1015.6
20260905155515 50 218 4.3 10.4 0.00 0.07 0.00 82 1015.6
20260905155013 50 262 6.1 11.3 0.00 0.07 0.00 82 1015.5
20260905154527 50 289 6.1 11.3 0.00 0.07 0.00 82 1015.4
20260905154016 49 259 7.8 11.3 0.00 0.07 0.00 83 1015.2
20260905153516 49 254 5.2 10.4 0.00 0.07 0.00 83 1015.2
20260905153023 49 230 5.2 10.4 0.00 0.07 0.00 83 1015.2
20260905152515 49 237 6.1 12.2 0.00 0.07 0.00 83 1015.1
20260905152014 49 232 7.0 12.2 0.00 0.07 0.00 83 1015.0
20260905151519 49 256 6.1 10.4 0.00 0.07 0.00 83 1015.0
20260905151013 49 242 6.1 12.2 0.00 0.07 0.00 83 1014.9
20260905150514 49 273 7.0 13.9 0.00 0.07 0.00 83 1014.9
20260905150020 49 249 9.6 13.9 0.00 0.07 0.00 83 1014.9
20260905145514 49 273 7.0 13.0 0.00 0.07 0.00 83 1014.7
20260905145012 49 239 7.8 13.9 0.00 0.07 0.00 82 1014.6
20260905144526 50 240 8.7 14.8 0.00 0.07 0.00 81 1014.4
20260905144014 50 243 9.6 17.4 0.00 0.07 0.00 81 1014.3
20260905143511 50 241 9.6 17.4 0.00 0.07 0.00 80 1014.3
20260905143027 50 241 12.2 17.4 0.00 0.07 0.00 79 1014.1
20260905142513 50 255 11.3 17.4 0.00 0.07 0.00 80 1014.0
20260905142005 50 270 6.1 13.9 0.00 0.07 0.00 80 1013.9
20260905141507 50 255 8.7 13.9 0.00 0.07 0.00 80 1013.9
20260905141007 50 254 5.2 12.2 0.00 0.07 0.00 80 1013.8
20260905140511 50 241 7.0 12.2 0.00 0.07 0.00 79 1013.7
20260905140005 49 266 7.0 12.2 0.00 0.07 0.00 80 1013.7
20260905135510 49 260 8.7 12.2 0.00 0.07 0.07 80 1013.6
20260905135006 49 256 6.1 10.4 0.00 0.07 0.07 80 1013.4
20260905134521 49 257 7.0 10.4 0.00 0.07 0.07 80 1013.3
20260905134010 49 262 4.3 10.4 0.00 0.07 0.07 79 1013.2
20260905133504 49 256 6.1 10.4 0.00 0.07 0.07 79 1013.1
20260905133006 49 294 6.1 15.6 0.00 0.07 0.07 79 1013.1
20260905132505 49 287 7.8 15.6 0.00 0.07 0.07 78 1013.1